Location: Esp�n
(42.4593°N, 0.2047°W)
Time: 11:22:48
(UTC+00:00)

Spot 4 Rocket - Pass Details

Date: 07 June 2020
Orbit: 776 x 782 km, 98.7° (Epoch: 11 July)

Event Time Altitude Azimuth Distance (km) Brightness Sun altitude
Rises 03:25:13 0° 10° (N) 3,267 8.2 -9.4°
Reaches altitude 10° 03:27:33 10° 7° (N) 2,334 7.3 -9.1°
Maximum altitude 03:32:38 63° 288° (WNW) 863 4.2 -8.4°
Drops below altitude 10° 03:37:40 10° 208° (SSW) 2,318 5.9 -7.7°
Enters shadow 03:38:21 - 206° (SSW) 2,586 6.2 -7.6°
